Location: Garbet
(42.8837°N, 1.2115°E)
Time: 16:40:32
(UTC+00:00)

Cosmos 1606 Rocket - Pass Details

Date: 13 December 2025
Orbit: 596 x 625 km, 82.5° (Epoch: 22 January)

Event Time Altitude Azimuth Distance (km) Brightness Sun altitude
Rises 16:44:08 0° 168° (SSE) 2,879 7.2 -4.5°
Reaches altitude 10° 16:46:26 10° 161° (SSE) 1,983 6.3 -4.9°
Maximum altitude 16:50:33 40° 92° (E) 919 4.1 -5.5°
Drops below altitude 10° 16:54:43 10° 23° (NNE) 2,007 5.7 -6.2°
Sets 16:57:03 0° 16° (NNE) 2,920 6.6 -6.6°
